sat.trackr.live / text

‹ back to catalog

STARLINK-36477

NORAD 67355 · 2026-003X

PAYLOAD ACTIVE UNKNOWN

§ Identity

Operator
Country
US
Launch date
2026-01-09
Launch site
AFETR
Launch vehicle
Mass (kg)
RCS (m²)

Purposes: comms

External: N2YO · Heavens-Above · Gunter

§ Orbital elements

Epoch: 2026-09-19T21:53:52.383840Z

Period
94.27 min
Inclination
43.0012°
Eccentricity
0.0001161
Mean motion
15.27594653 rev/d
Perigee alt
482.2 km
Apogee alt
483.8 km
Semi-major
6,861.1 km
B*
4.3091e-4
RAAN
210.5579°
Arg perigee
265.2241°
Mean anomaly
94.8478°
Rev number
3,852

§ Raw data

STARLINK-364771 67355U 26003X   26262.91241185  .00011620  00000+0  43091-3 0  99952 67355  43.0012 210.5579 0001161 265.2241  94.8478 15.27594653 38523

JSON: /api/v1/satellites/67355 · /tle

For live sub-satellite position, see the globe view (requires WebGL).

§ Visibility from observer

Set your observer location to see the next 7 days of passes ≥ 10°. The values pass through the URL so the page stays shareable.

No JS? Fill the form by hand. The geolocation button needs JavaScript.